Location: Oregon Trail
(41.1872°N, 102.0741°W)
Time: 02:54:09
(UTC+00:00)

Cosmos 1151 Rocket - Pass Details

Date: 19 November 2019
Orbit: 593 x 615 km, 82.5° (Epoch: 05 December)

Event Time Altitude Azimuth Distance (km) Brightness Sun altitude
Exits shadow 12:54:15 - 336° (NNW) 2,775 6.0 -9.0°
Reaches altitude 10° 12:56:36 10° 321° (NW) 1,973 5.1 -8.5°
Maximum altitude 12:59:53 21° 273° (W) 1,376 4.3 -8.0°
Drops below altitude 10° 13:03:07 10° 224° (SW) 1,951 5.4 -7.4°
Sets 13:05:44 0° 208° (SSW) 2,845 6.4 -6.9°
